TimePST,TemperatureF,Dew PointF,Humidity,Sea Level PressureIn,VisibilityMPH,Wind Direction,Wind SpeedMPH,Gust SpeedMPH,PrecipitationIn,Events,Conditions,WindDirDegrees,DateUTC
12:53 AM,33.1,28.9,85,29.93,10.0,WSW,6.9,-,N/A,,Clear,240,2013-01-10 08:53:00
1:53 AM,34.0,28.9,82,29.95,10.0,North,-9999.0,-,N/A,,Clear,0,2013-01-10 09:53:00
2:53 AM,33.1,28.0,82,29.97,10.0,North,-9999.0,-,N/A,,Clear,0,2013-01-10 10:53:00
3:53 AM,33.1,28.0,82,29.98,10.0,North,-9999.0,-,N/A,,Clear,0,2013-01-10 11:53:00
4:53 AM,35.1,28.9,78,29.99,10.0,North,-9999.0,-,N/A,,Overcast,0,2013-01-10 12:53:00
5:53 AM,35.1,28.9,78,30.00,10.0,North,-9999.0,-,N/A,,Overcast,0,2013-01-10 13:53:00
6:53 AM,35.1,28.9,78,30.02,10.0,North,-9999.0,-,N/A,,Overcast,0,2013-01-10 14:53:00
7:53 AM,35.1,28.0,76,30.05,10.0,North,-9999.0,-,N/A,,Overcast,0,2013-01-10 15:53:00
8:53 AM,36.0,28.0,73,30.06,10.0,North,-9999.0,-,N/A,,Overcast,0,2013-01-10 16:53:00
9:53 AM,36.0,28.0,73,30.08,10.0,WSW,10.4,-,N/A,,Overcast,250,2013-01-10 17:53:00
10:53 AM,37.9,28.0,68,30.09,10.0,WSW,10.4,-,N/A,,Overcast,250,2013-01-10 18:53:00
11:50 AM,39.2,28.4,65,30.06,10.0,West,9.2,-,N/A,,Overcast,260,2013-01-10 19:50:00
11:53 AM,39.0,28.9,67,30.08,10.0,West,8.1,-,N/A,,Overcast,260,2013-01-10 19:53:00
12:53 PM,37.9,34.0,86,30.07,7.0,WSW,8.1,-,0.02,Rain,Light Rain,250,2013-01-10 20:53:00
1:21 PM,37.0,33.1,86,30.08,10.0,Calm,Calm,-,0.00,,Overcast,0,2013-01-10 21:21:00
1:38 PM,35.1,32.0,89,30.08,1.5,SE,6.9,-,0.00,Snow,Light Snow,140,2013-01-10 21:38:00
1:48 PM,33.8,32.0,93,30.08,1.0,SE,5.8,-,0.01,Snow,Light Snow,140,2013-01-10 21:48:00
1:53 PM,34.0,32.0,92,30.09,1.0,SSE,6.9,-,0.02,Snow,Light Snow,150,2013-01-10 21:53:00
2:08 PM,35.1,33.1,92,30.09,3.0,South,4.6,-,0.00,Snow,Light Snow,170,2013-01-10 22:08:00
2:23 PM,35.1,33.1,92,30.09,10.0,SSE,3.5,-,0.00,,Overcast,150,2013-01-10 22:23:00
2:53 PM,35.1,33.1,92,30.10,4.0,SSW,4.6,-,0.00,Snow,Light Snow,210,2013-01-10 22:53:00
3:30 PM,36.0,34.0,93,30.09,1.8,SE,3.5,-,0.02,Rain,Rain,140,2013-01-10 23:30:00
3:37 PM,36.0,32.0,86,30.09,1.2,SSE,3.5,-,0.04,Snow,Light Snow,160,2013-01-10 23:37:00
3:44 PM,36.0,33.1,89,30.09,3.0,SSE,3.5,-,0.04,Rain,Light Rain,150,2013-01-10 23:44:00
3:51 PM,35.6,33.8,93,30.09,10.0,Calm,Calm,-,0.04,,Overcast,0,2013-01-10 23:51:00
3:53 PM,36.0,34.0,93,30.10,10.0,Calm,Calm,-,0.04,,Overcast,0,2013-01-10 23:53:00
4:06 PM,36.0,33.1,89,30.09,10.0,SE,5.8,-,0.00,,Overcast,140,2013-01-11 00:06:00
4:32 PM,36.0,34.0,93,30.09,10.0,SSE,6.9,-,0.00,,Overcast,160,2013-01-11 00:32:00
4:53 PM,36.0,33.1,89,30.10,10.0,SSE,5.8,-,0.00,,Overcast,150,2013-01-11 00:53:00
5:13 PM,36.0,33.1,89,30.09,10.0,South,5.8,-,N/A,,Overcast,180,2013-01-11 01:13:00
5:53 PM,36.0,33.1,89,30.11,10.0,SSW,6.9,-,0.00,,Overcast,210,2013-01-11 01:53:00
6:53 PM,35.1,33.1,92,30.11,10.0,Calm,Calm,-,N/A,,Overcast,0,2013-01-11 02:53:00
7:53 PM,33.1,30.9,92,30.12,10.0,Calm,Calm,-,N/A,,Partly Cloudy,0,2013-01-11 03:53:00
8:53 PM,34.0,30.9,89,30.13,10.0,Variable,3.5,-,N/A,,Overcast,0,2013-01-11 04:53:00
9:53 PM,32.0,28.9,88,30.14,10.0,SSW,3.5,-,N/A,,Mostly Cloudy,200,2013-01-11 05:53:00
10:53 PM,35.1,28.9,78,30.15,10.0,Calm,Calm,-,N/A,,Overcast,0,2013-01-11 06:53:00
11:53 PM,33.1,30.9,92,30.15,10.0,SW,5.8,-,N/A,,Overcast,230,2013-01-11 07:53:00